Home   Weather   Blackpool   Past weeks

Flag for United Kingdom Past Weather in Blackpool, England, United Kingdom — Yesterday and Last 2 Weeks

Now
61 °F

Passing clouds.


Feels Like: 61 °F
Forecast: 50 / 59 °F
Wind: 10 mph from South

Location: Blackpool Airport

Current Time: Oct 20, 2018 at 1:53:09 pm

Latest Report: Oct 20, 2018 at 12:50 pm


Visibility: N/A

Pressure: 30.39 "Hg

Humidity: 77%

Dew Point: 54 °F

Location of BlackpoolLocation

Past Weather in Blackpool — Graph

°F

Blackpool Temperature Yesterday

Maximum temperature yesterday: 57 °F (at 1:20 pm)
Minimum temperature yesterday: 41 °F (at 6:20 am)
Average temperature yesterday: 53 °F

High & Low Weather Summary for the Past Weeks

 TemperatureHumidityPressure
High72 °F (Oct 10, 2:20 pm)100% (Oct 7, 6:20 am)30.42 "Hg (Oct 7, 6:20 am)
Low34 °F (Oct 7, 6:20 am)51% (Oct 6, 5:20 pm)29.39 "Hg (Oct 12, 2:50 pm)
Average55 °F82%29.94 "Hg
* Reported Oct 5 12:20 pm — Oct 20 12:50 pm, Blackpool. Weather by CustomWeather, © 2018

Note: Actual official high and low records may vary slightly from our data, if they occured in-between our weather recording intervals... More about our weather records

Advertising

Blackpool Weather History for the Previous 24 Hours

Scroll right to see more
 ConditionsComfort  
Time TempWeatherWind HumidityBarometerVisibility
12:50 pm
Sat, Oct 20
61 °FPassing clouds.10 mph77%30.39 "HgN/A
12:20 pm59 °FScattered clouds.9 mph77%30.39 "HgN/A
11:50 am57 °FScattered clouds.9 mph82%30.39 "HgN/A
11:20 am57 °FPartly sunny.8 mph82%30.39 "HgN/A
10:50 am55 °FScattered clouds.9 mph88%30.42 "HgN/A
10:20 am54 °FScattered clouds.9 mph88%30.42 "HgN/A
9:50 am52 °FBroken clouds.8 mph94%30.42 "HgN/A
9:20 am50 °FPartly sunny.9 mph94%30.39 "HgN/A
8:50 am50 °FPartly sunny.10 mph94%30.39 "HgN/A
8:20 am50 °FPartly sunny.10 mph94%30.39 "HgN/A
7:50 am50 °FScattered clouds.10 mph94%30.39 "HgN/A
7:20 am50 °FPassing clouds.8 mph94%30.36 "HgN/A
6:50 am50 °FPassing clouds.7 mph94%30.39 "HgN/A
6:20 am50 °FPartly cloudy.8 mph94%30.36 "HgN/A
9:20 pm
Fri, Oct 19
55 °FPassing clouds.8 mph94%30.33 "HgN/A
8:50 pm55 °FPassing clouds.8 mph94%30.33 "HgN/A
8:20 pm55 °FPassing clouds.8 mph94%30.33 "HgN/A
7:50 pm55 °FPassing clouds.9 mph94%30.30 "HgN/A
7:20 pm55 °FPassing clouds.10 mph88%30.30 "HgN/A
6:50 pm55 °FPartly cloudy.9 mph88%30.30 "HgN/A
6:20 pm55 °FPassing clouds.10 mph88%30.30 "HgN/A
5:50 pm55 °FPassing clouds.13 mph88%30.27 "HgN/A
5:20 pm55 °FPassing clouds.13 mph88%30.27 "HgN/A
4:50 pm57 °FPassing clouds.12 mph82%30.27 "HgN/A
4:20 pm57 °FPassing clouds.14 mph82%30.27 "HgN/A
3:50 pm57 °FPassing clouds.13 mph82%30.27 "HgN/A
3:20 pm57 °FPassing clouds.9 mph82%30.27 "HgN/A
2:50 pm57 °FPassing clouds.10 mph77%30.27 "HgN/A
2:20 pm57 °FPassing clouds.9 mph77%30.27 "HgN/A
1:50 pm57 °FPassing clouds.10 mph77%30.27 "HgN/A
1:20 pm57 °FPassing clouds.12 mph72%30.27 "HgN/A
Weather by CustomWeather, © 2018

See weather overview